Weather History for Mojave, CA

Change the Weather History Date:

Wednesday, January 16, 2013

  Actual Average Record
Temperature  
Mean Temperature 40 °F -  
Max Temperature 53 °F 56 °F 70 °F (1965)
Min Temperature 28 °F 35 °F 21 °F (1987)
Degree Days  
Heating Degree Days 24    
Moisture  
Dew Point 14 °F    
Average Humidity 37    
Maximum Humidity 55    
Minimum Humidity 22    
Precipitation  
Precipitation 0.00 in - - ()
Sea Level Pressure  
Sea Level Pressure 30.39 in    
Wind  
Wind Speed 5 mph (NNW)    
Max Wind Speed 9 mph    
Max Gust Speed -    
Visibility 10 miles    
Events      
Averages and records for this station are not official NWS values.
T = Trace of Precipitation, MM = Missing Value Source: NWS Daily Summary

Daily Weather History Graph

Daily Weather History Graph

Search for Another Location

Airport:

Trip Planner

Search our weather history database for the weather conditions in past years. The results will help you decide how hot, cold, wet, or windy it might be!

Date:

Astronomy

Jan. 16, 2013 Rise Set
Actual Time 6:59 AM PST 5:05 PM PST
Civil Twilight 6:32 AM PST 5:32 PM PST
Nautical Twilight 6:01 AM PST 6:04 PM PST
Astronomical Twilight 5:30 AM PST 6:34 PM PST
Moon 9:53 AM PST (1/16) 10:45 PM PST (1/16)
Length of Visible Light 11h 00m
Length of Day
10h 05m
Waxing Crescent, 29% of the Moon is Illuminated
Jan 16
Waxing Crescent
Jan 18
First Quarter
Jan 26
Full
Feb 3
Last Quarter
Feb 9
New

Hourly Weather History & Observations

Time (PST) Temp. Windchill Dew Point Humidity Pressure Visibility Wind Dir Wind Speed Gust Speed Precip Events Conditions
12:15 AM 30.2 °F 21.9 °F 8.6 °F 40% 30.44 in 9.0 mi NW 9.2 mph - N/A   Clear
12:35 AM 30.2 °F 24.3 °F 8.6 °F 40% 30.44 in 10.0 mi NW 5.8 mph - N/A   Clear
1:15 AM 30.2 °F 24.3 °F 8.6 °F 40% 30.44 in 10.0 mi NW 5.8 mph - N/A   Clear
1:35 AM 30.2 °F 26.7 °F 10.4 °F 44% 30.44 in 10.0 mi NW 3.5 mph - N/A   Clear
1:55 AM 30.2 °F 21.9 °F 10.4 °F 44% 30.44 in 10.0 mi NW 9.2 mph - N/A   Clear
2:15 AM 30.2 °F 23.4 °F 10.4 °F 44% 30.44 in 10.0 mi NW 6.9 mph - N/A   Clear
2:35 AM 30.2 °F 23.4 °F 10.4 °F 44% 30.44 in 10.0 mi NW 6.9 mph - N/A   Clear
2:55 AM 30.2 °F 24.3 °F 12.2 °F 47% 30.44 in 10.0 mi NW 5.8 mph - N/A   Clear
3:15 AM 30.2 °F 23.4 °F 12.2 °F 47% 30.44 in 10.0 mi NW 6.9 mph - N/A   Clear
3:35 AM 30.2 °F 24.3 °F 12.2 °F 47% 30.44 in 10.0 mi NW 5.8 mph - N/A   Clear
3:55 AM 30.2 °F 24.3 °F 12.2 °F 47% 30.43 in 10.0 mi NW 5.8 mph - N/A   Clear
4:15 AM 30.2 °F 24.3 °F 12.2 °F 47% 30.43 in 10.0 mi NW 5.8 mph - N/A   Clear
4:35 AM 30.2 °F 23.4 °F 12.2 °F 47% 30.43 in 10.0 mi NW 6.9 mph - N/A   Clear
4:55 AM 28.4 °F 21.2 °F 12.2 °F 51% 30.42 in 10.0 mi NW 6.9 mph - N/A   Clear
5:15 AM 30.2 °F 21.9 °F 14.0 °F 51% 30.42 in 10.0 mi NNW 9.2 mph - N/A   Clear
5:35 AM 28.4 °F - 14.0 °F 55% 30.43 in 10.0 mi Calm Calm - N/A   Clear
5:55 AM 28.4 °F - 14.0 °F 55% 30.43 in 10.0 mi Calm Calm - N/A   Clear
6:15 AM 30.2 °F 25.4 °F 14.0 °F 51% 30.43 in 10.0 mi NW 4.6 mph - N/A   Clear
6:35 AM 28.4 °F - 14.0 °F 55% 30.44 in 10.0 mi Calm Calm - N/A   Clear
6:55 AM 28.4 °F 24.6 °F 12.2 °F 51% 30.44 in 10.0 mi WNW 3.5 mph - N/A   Clear
7:15 AM 28.4 °F 24.6 °F 14.0 °F 55% 30.45 in 10.0 mi NW 3.5 mph - N/A   Clear
7:35 AM 32.0 °F 25.6 °F 14.0 °F 48% 30.45 in 10.0 mi NW 6.9 mph - N/A   Clear
7:55 AM 35.6 °F - 15.8 °F 44% 30.46 in 10.0 mi Calm Calm - N/A   Clear
8:15 AM 39.2 °F - 17.6 °F 42% 30.46 in 10.0 mi Calm Calm - N/A   Clear
8:35 AM 44.6 °F - 17.6 °F 34% 30.46 in 10.0 mi Calm Calm - N/A   Clear
8:55 AM 46.4 °F - 17.6 °F 32% 30.47 in 10.0 mi Calm Calm - N/A   Clear
9:15 AM 46.4 °F - 17.6 °F 32% 30.47 in 10.0 mi Calm Calm - N/A   Clear
9:35 AM 46.4 °F - 17.6 °F 32% 30.47 in 10.0 mi Calm Calm - N/A   Clear
9:55 AM 46.4 °F 44.3 °F 17.6 °F 32% 30.47 in 10.0 mi SSE 4.6 mph - N/A   Clear
10:15 AM 46.4 °F 45.2 °F 17.6 °F 32% 30.46 in 10.0 mi East 3.5 mph - N/A   Clear
10:35 AM 46.4 °F 45.2 °F 17.6 °F 32% 30.45 in 10.0 mi East 3.5 mph - N/A   Clear
10:55 AM 48.2 °F - 17.6 °F 30% 30.44 in 10.0 mi SSE 3.5 mph - N/A   Clear
11:15 AM 48.2 °F - 17.6 °F 30% 30.43 in 10.0 mi South 3.5 mph - N/A   Clear
11:55 AM 50.0 °F - 17.6 °F 28% 30.40 in 10.0 mi East 3.5 mph - N/A   Clear
12:15 PM 50.0 °F - 17.6 °F 28% 30.39 in 10.0 mi Calm Calm - N/A   Clear
12:35 PM 50.0 °F - 17.6 °F 28% 30.37 in 10.0 mi Calm Calm - N/A   Clear
12:55 PM 50.0 °F - 17.6 °F 28% 30.36 in 10.0 mi Calm Calm - N/A   Clear
1:15 PM 51.8 °F - 17.6 °F 26% 30.35 in 10.0 mi Calm Calm - N/A   Clear
1:35 PM 51.8 °F - 17.6 °F 26% 30.35 in 10.0 mi NE 6.9 mph - N/A   Clear
1:55 PM 51.8 °F - 17.6 °F 26% 30.34 in 10.0 mi ESE 3.5 mph - N/A   Clear
2:15 PM 53.6 °F - 17.6 °F 24% 30.34 in 10.0 mi Calm Calm - N/A   Clear
2:55 PM 53.6 °F - 15.8 °F 22% 30.33 in 10.0 mi East 4.6 mph - N/A   Clear
3:15 PM 53.6 °F - 15.8 °F 22% 30.33 in 10.0 mi Calm Calm - N/A   Clear
3:35 PM 53.6 °F - 15.8 °F 22% 30.33 in 10.0 mi East 4.6 mph - N/A   Clear
3:55 PM 53.6 °F - 15.8 °F 22% 30.33 in 10.0 mi NE 5.8 mph - N/A   Clear
4:15 PM 53.6 °F - 15.8 °F 22% 30.33 in 10.0 mi NE 5.8 mph - N/A   Clear
4:35 PM 53.6 °F - 15.8 °F 22% 30.34 in 10.0 mi NE 6.9 mph - N/A   Clear
4:55 PM 51.8 °F - 15.8 °F 24% 30.34 in 10.0 mi NNE 5.8 mph - N/A   Clear
5:15 PM 50.0 °F - 14.0 °F 24% 30.34 in 10.0 mi ENE 3.5 mph - N/A   Clear
5:35 PM 48.2 °F - 14.0 °F 25% 30.34 in 10.0 mi Calm Calm - N/A   Clear
5:55 PM 44.6 °F 43.1 °F 14.0 °F 29% 30.35 in 8.0 mi NNW 3.5 mph - N/A   Clear
6:15 PM 41.0 °F 38.0 °F 12.2 °F 31% 30.35 in 10.0 mi WNW 4.6 mph - N/A   Clear
6:55 PM 39.2 °F - 10.4 °F 31% 30.35 in 10.0 mi Calm Calm - N/A   Clear
7:15 PM 37.4 °F 34.9 °F 10.4 °F 33% 30.35 in 10.0 mi WNW 3.5 mph - N/A   Clear
7:35 PM 39.2 °F 37.0 °F 10.4 °F 31% 30.35 in 10.0 mi NNW 3.5 mph - N/A   Clear
7:55 PM 37.4 °F 32.8 °F 10.4 °F 33% 30.35 in 10.0 mi NNW 5.8 mph - N/A   Clear
8:15 PM 35.6 °F 29.9 °F 10.4 °F 35% 30.35 in 10.0 mi North 6.9 mph - N/A   Clear
8:35 PM 35.6 °F 30.7 °F 10.4 °F 35% 30.35 in 10.0 mi NNW 5.8 mph - N/A   Clear
8:55 PM 35.6 °F 31.7 °F 10.4 °F 35% 30.35 in 10.0 mi North 4.6 mph - N/A   Clear
9:15 PM 33.8 °F 30.8 °F 10.4 °F 38% 30.35 in 10.0 mi West 3.5 mph - N/A   Clear
9:35 PM 33.8 °F 30.8 °F 10.4 °F 38% 30.34 in 10.0 mi NW 3.5 mph - N/A   Clear
9:55 PM 33.8 °F - 10.4 °F 38% 30.34 in 10.0 mi Calm Calm - N/A   Clear
10:15 PM 33.8 °F 30.8 °F 10.4 °F 38% 30.34 in 10.0 mi WNW 3.5 mph - N/A   Clear
10:35 PM 32.0 °F 27.5 °F 10.4 °F 41% 30.34 in 10.0 mi NW 4.6 mph - N/A   Clear
10:55 PM 32.0 °F 27.5 °F 10.4 °F 41% 30.34 in 10.0 mi NW 4.6 mph - N/A   Clear
11:15 PM 32.0 °F 26.4 °F 8.6 °F 38% 30.34 in 10.0 mi NNW 5.8 mph - N/A   Clear
11:35 PM 32.0 °F 24.8 °F 8.6 °F 38% 30.34 in 10.0 mi NNW 8.1 mph - N/A   Clear
11:55 PM 32.0 °F 24.2 °F 10.4 °F 41% 30.34 in 10.0 mi NNW 9.2 mph - N/A   Clear